Regional Weather Roundup
Issued by NWS Upton, NY

Current Version | Previous Version | Text Only | Print | Product List | Glossary On
Versions: 1 2 3 4 5 6 7 8 9 10 11 12 13 14 15 16 17 18 19 20 21 22 23 24 25 26 27 28 29 30 31 32 33 34 35 36 37 38 39 40 41 42 43 44 45 46 47 48 49 50
000 ASUS41 KOKX 070708 RWROKX REGIONAL WEATHER ROUNDUP NATIONAL WEATHER SERVICE NEW YORK NY 300 AM EDT TUE JUL 07 2015 NOTE: "FAIR" INDICATES FEW OR NO CLOUDS BELOW 12,000 FEET WITH NO SIGNIFICANT WEATHER AND/OR OBSTRUCTIONS TO VISIBILITY. NYZ071-072-176-178-NJZ106-104-070800- NEW YORK CITY METRO AREA CITY SKY/WX TMP DP RH WIND PRES REMARKS CENTRAL PARK CLOUDY 75 70 84 S7 30.08F LAGUARDIA APRT CLOUDY 75 72 88 SE8 30.05F KENNEDY INTL FOG 75 71 87 SE8 30.06F VSB 1 NEWARK/LIBERTY CLOUDY 75 71 87 SE5 30.04F BRNX BOT. GARD N/A 73 70 88 SE2 30.05F TETERBORO CLOUDY 77 70 79 SE3 30.03F $$ NYZ177-179-078>081-070800- LONG ISLAND NEW YORK CITY SKY/WX TMP DP RH WIND PRES REMARKS FARMINGDALE CLOUDY 74 71 91 S7 30.06F ISLIP CLOUDY 74 71 91 S7 30.05F SHIRLEY CLOUDY 73 70 90 S5 30.08F WESTHAMPTON PTCLDY 72 71 97 S3 30.09F MONTAUK POINT N/A 71 68 90 CALM 30.11F $$ NYZ052-065-067-070800- HUDSON VALLEY CITY SKY/WX TMP DP RH WIND PRES REMARKS WHITE PLAINS CLOUDY 72 67 84 E5 30.06F NEWBURGH PTCLDY 72 66 83 CALM 30.08F MONTGOMERY CLOUDY 70 68 93 CALM 30.06F POUGHKEEPSIE PTCLDY 71 65 81 CALM 30.05F ALBANY PTCLDY 72 65 78 S5 30.05F $$ NJZ001-105-106-008-010-013-015-019>022-104-070800- NEW JERSEY CITY SKY/WX TMP DP RH WIND PRES REMARKS NEWARK/LIBERTY CLOUDY 75 71 87 SE5 30.04F TETERBORO CLOUDY 77 70 79 SE3 30.03F CALDWELL MOCLDY 72 68 87 SE3 30.05F MORRISTOWN CLOUDY 72 68 88 CALM 30.05S SOMERVILLE CLOUDY 72 69 90 CALM 30.03S SUSSEX CLOUDY 71 67 87 CALM 30.05F ANDOVER N/A 70 68 93 CALM 30.06F TRENTON CLOUDY 75 72 90 S6 30.04S MILLVILLE CLOUDY 77 74 90 VRB6 30.05S ATLANTIC CITY NOT AVBL WRIGHTSTOWN CLOUDY 73 73 100 S2 30.02S TOMS RIVER MOCLDY 75 72 88 S6 30.05S BELMAR CLOUDY 75 70 83 S5 30.05F $$ PAZ047>061-062-071-070800- EASTERN PENNSYLVANIA CITY SKY/WX TMP DP RH WIND PRES REMARKS PHILADELPHIA CLOUDY 77 72 84 S8 30.04R ALLENTOWN CLOUDY 74 71 91 SE5 30.03F SCRANTON MOCLDY 75 67 76 VRB3 30.04S $$ CTZ002-004>006-009-010-012-RIZ004-006-007-MAZ004-011-015-070800- SOUTHERN NEW ENGLAND IN CT CITY SKY/WX TMP DP RH WIND PRES REMARKS BRADLEY INTL MOCLDY 70 64 81 SE6 30.08F HARTFORD CLOUDY 70 65 84 CALM 30.08F DANBURY CLOUDY 70 63 78 CALM 30.09F WTRBRY/OXFORD CLOUDY 70 63 78 CALM 30.11F BRIDGEPORT MOCLDY 73 67 81 E5 30.07F MERIDEN CLOUDY 70 66 87 CALM 30.08F NEW HAVEN CLOUDY 72 67 84 CALM 30.08F CHESTER CLOUDY 68 64 88 CALM 30.10F GROTON CLOUDY 69 66 90 CALM 30.09F WILLIMANTIC CLOUDY 68 64 87 NE3 30.10F IN RI CITY SKY/WX TMP DP RH WIND PRES REMARKS PROVIDENCE MOCLDY 67 65 93 CALM 30.11F BLOCK ISLAND MOCLDY 70 66 88 S3 30.11S WESTERLY MOCLDY 66 64 93 CALM 30.10F IN MA CITY SKY/WX TMP DP RH WIND PRES REMARKS BOSTON CLEAR 66 64 93 S7 30.11S WORCESTER CLEAR 65 61 87 W5 30.12F WESTFIELD CLOUDY 69 64 84 SE3 30.08F PROVINCETOWN CLEAR 64 7 10 S6 30.13S NANTUCKET CLEAR 63 60 90 SE7 30.13S $$ ANZ330-335-338-340-345-350-353-355-070800- COASTAL MARINE OBSERVATIONS STATION/POSITION TIME SKY/WX TEMP WIND PRES VSBY WAVE AIR SEA DIR/SP/G HT/PER (UTC) (F) (DEG/KT/KT) (MB) (MI) (FT/S) NY HARB ENTRANCE 0650 72 72 150/ 6/ 8 1017.3 2/ 4 4S FIRE IS 0603 69 N/A 2/13 20S FIRE ISLAND 0650 72 71 170/ 10/ 12 1017.6 2/ 9 GREAT SOUTH BAY 0600 73 76 210/ 10/ 12 N/A 23SW MTP 0650 72 70 200/ 10/ 12 1018.2 2/ 8 HUDSON CANYON NOT AVBL KINGS POINT 0600 73 67 180/ 2/ 4 1017.7 CENTRAL LI SOUND NOT AVBL EASTERN LI SOUND 0600 66 64 60/ 6/ 8 N/A ROBBINS REEF 0600 72 130/ 2/ 3 1016.8 $$ >>>>>>>>>>>>>>>>>>>>>>>>>>>> KEY <<<<<<<<<<<<<<<<<<<<<<<<<<< > < > SKY/WX - SKY CONDITION/PRESENT WEATHER < > TMP - TEMPERATURE IN FAHRENHEIT < > DP - DEWPOINT IN FAHRENHEIT < > RH - RELATIVE HUMIDITY IN PERCENT < > WIND - DIRECTION AND SPEED IN MPH < > PRES - MEAN SEA LEVEL PRESSURE IN INCHES OF HG < > WCI - WIND CHILL INDEX < > VSB - VISIBILITY IN MILES < > HX - HEAT INDEX < > TC - TEMPERATURE IN CELSIUS < > VRB - VARIABLE WIND DIRECTION < > < >>>>>>>>>>>>>>>>>>>>>>>>>>>> KEY <<<<<<<<<<<<<<<<<<<<<<<<<<<

USA.gov is the U.S. government's official web portal to all federal, state and local government web resources and services.